Tracking 23446 objects as of 20-Jun-2021
HD Live streaming from Space Station
objects crossing your sky now

STARLINK-2581

Track STARLINK-2581 now!
10-day predictions
STARLINK-2581 is classified as:


NORAD ID: 48412
Int'l Code: 2021-038BM
Perigee: 354.8 km
Apogee: 358.5 km
Inclination: 53.0 °
Period: 91.5 minutes
Semi major axis: 6727 km
RCS: Unknown
Launch date: May 4, 2021
Source: United States (US)
Launch site: AIR FORCE EASTERN TEST RANGE (AFETR)
aabbcc
Your satellite tracking list
Your tracking list is empty




NASA's NSSDC Master Catalog

Two Line Element Set (TLE):
1 48412U 21038BM  21171.41667824 -.00136021  00000-0 -97692-3 0  9994
2 48412  53.0497 172.2655 0002748  18.0165 312.7148 15.73273878  7946
Source of the keplerian elements: AFSPC